Wind_Speed
1 1 7 9 8 7 9 13 17 18 20 17 15 14 18 21 12 19 30 30 27 20 16 18 23 25 21 21 21 23 20 17 28 40 41 44 40 39 36 34 37 36 31 28
3 9 10 9 10 13 12 16 18 16 15 11 12 16 9 10 6 19 22 27 18 10 12 19 24 21 20 21 16 17 17 15 14 36 35 32 35 34 33 29 28 30 28 27
7 3 9 5 11 12 12 13 14 12 12 8 2 7 11 5 18 31 31 23 23 20 14 14 12 14 15 14 9 11 15 17 21 24 23 22 23 27 29 31 30 29 28 27
6 6 9 8 11 12 11 9 7 8 5 3 5 5 3 4 11 14 23 19 14 17 14 12 11 7 2 11 15 27 20 22 27 28 24 21 24 23 21 26 26 26 26 26
2 3 6 6 7 8 9 7 3 14 6 4 6 4 5 8 5 4 6 17 16 16 14 19 9 4 9 6 14 19 18 19 28 29 25 27 29 26 21 21 21 20 21 23
7 5 3 5 8 11 9 4 8 1 2 4 4 9 2 3 5 6 7 1 17 15 21 15 12 15 4 4 2 21 21 32 35 32 30 25 25 24 17 14 19 17 17 22
5 5 4 6 6 2 3 2 3 3 4 3 8 5 0 9 7 7 6 11 8 17 21 17 15 17 10 14 21 19 17 26 33 24 21 18 11 11 14 15 14 13 15 17
5 6 3 4 5 4 2 3 2 4 3 2 3 4 6 13 11 6 6 8 16 20 14 10 6 5 4 1 6 12 16 20 28 26 29 29 23 24 18 22 25 26 28 25
4 4 3 7 5 3 2 2 2 2 1 3 4 2 2 16 14 13 14 14 23 27 22 15 9 6 5 3 1 5 7 10 13 8 8 23 18 23 36 37 38 34 37 32
3 4 5 3 5 7 5 2 3 2 3 4 3 3 5 10 9 10 11 25 34 28 23 20 18 19 15 14 10 5 1 2 8 10 12 22 27 23 23 29 35 27 42 34
3 2 6 2 3 4 5 4 3 1 4 1 1 4 1 5 12 17 19 18 23 22 22 20 22 22 21 21 20 16 12 5 1 5 8 11 14 19 22 19 19 23 31 34
1 2 3 2 4 3 3 5 2 3 5 3 3 4 4 10 6 12 17 22 24 22 21 23 22 23 23 22 19 18 16 13 11 5 2 8 13 17 19 21 22 25 26 27
4 3 3 8 6 6 4 11 3 3 3 4 4 3 4 11 11 14 17 20 21 20 20 20 20 22 19 16 16 16 16 15 11 9 7 6 7 10 13 15 17 21 22 22
1 3 3 5 5 5 6 12 8 5 4 3 4 6 4 5 6 10 17 17 17 18 18 17 16 14 12 10 11 10 9 9 9 8 8 8 9 11 12 13 17 20 21 23
3 2 3 2 3 2 4 5 10 6 5 5 7 5 3 3 4 8 12 11 13 16 18 18 19 15 15 15 14 13 13 12 13 14 15 15 15 15 15 16 18 19 20 22
4 1 2 2 3 2 3 7 7 8 11 7 8 4 5 8 10 8 8 7 10 11 14 17 22 22 19 20 22 20 20 20 20 20 20 21 22 22 22 22 22 21 23 24
2 3 2 3 2 2 4 2 2 2 3 6 4 5 6 4 6 5 5 2 3 6 12 17 15 16 20 22 23 22 22 23 25 25 24 24 23 24 25 24 25 26 25 25
1 2 2 3 3 2 5 1 2 4 2 3 5 4 5 3 1 4 3 2 7 14 20 21 21 23 24 24 24 26 27 27 30 30 30 28 26 26 26 27 28 28 26 26
2 3 1 2 2 3 0 3 5 5 5 5 6 4 2 4 6 3 3 7 14 22 25 23 22 23 23 23 23 24 25 27 29 31 33 34 36 37 34 33 32 30 30 31
1 3 3 1 1 4 4 4 5 3 4 9 10 7 6 3 1 4 5 9 16 15 16 18 17 17 18 19 21 22 23 24 26 28 30 32 37 37 38 37 36 34 34 33
2 2 3 1 2 6 4 7 6 3 5 14 17 16 13 5 8 5 7 10 9 9 13 16 19 21 22 21 20 18 20 22 24 26 29 30 32 34 37 40 38 38 32 34
5 4 4 2 2 6 13 6 7 4 11 20 16 15 13 8 7 5 5 5 5 8 12 16 17 16 15 12 12 17 20 20 22 26 27 30 32 33 35 37 39 38 37 30
3 6 3 7 5 4 24 6 11 12 18 19 18 16 12 10 7 6 5 5 7 10 11 13 15 16 17 14 12 15 18 20 22 25 25 31 31 30 30 33 35 37 36 32
4 6 3 2 3 8 23 13 15 16 16 16 16 14 12 9 7 6 6 7 9 11 13 15 17 19 20 20 17 16 21 22 23 23 27 31 31 33 31 30 30 35 36 33
6 6 4 5 7 3 15 26 22 18 15 17 14 12 8 7 6 6 7 8 10 13 14 17 20 23 25 26 22 23 28 30 29 30 32 32 32 32 35 34 33 32 33 35
11 8 6 6 11 6 5 18 24 23 21 17 15 11 8 7 7 8 10 11 13 14 16 19 22 25 27 28 24 25 29 31 32 34 35 35 35 34 37 38 40 35 30 32
Wind_Direction
182 48 219 214 208 243 271 274 275 276 281 285 284 256 250 241 241 279 284 248 231 229 252 265 272 272 257 248 244 265 272 284 184 181 187 176 183 188 194 200 204 207 202 198
354 257 253 227 236 267 264 284 275 280 271 275 289 264 255 226 252 274 267 214 226 233 260 266 268 264 250 240 243 260 262 244 171 161 172 181 190 186 188 192 194 197 198 201
215 213 330 243 238 255 253 258 273 257 300 260 272 284 248 229 201 243 259 229 231 230 245 261 247 228 216 226 234 229 260 216 191 165 165 180 191 189 190 194 189 191 199 207
249 241 255 271 259 239 275 249 252 288 287 260 84 294 311 292 260 219 227 214 207 211 233 228 209 125 4 274 258 255 271 189 176 176 169 191 205 203 200 204 208 207 205 206
265 236 227 249 243 182 238 238 244 269 219 284 225 237 332 346 227 334 287 229 220 204 211 163 161 93 16 297 233 230 237 202 174 177 181 191 189 190 185 203 200 206 206 209
252 290 237 229 257 254 273 345 290 135 173 249 246 187 356 344 285 298 317 359 185 197 184 171 128 91 145 71 329 210 194 189 187 185 190 186 179 179 174 188 201 198 220 218
197 227 230 215 264 224 71 284 276 176 217 19 100 154 113 312 301 270 307 339 188 171 161 150 136 162 139 63 62 119 171 188 180 185 179 178 200 236 236 214 223 224 253 238
354 333 229 161 201 248 234 216 319 352 34 51 81 1 348 338 5 348 22 337 105 85 112 131 188 222 294 283 85 93 100 121 186 204 218 235 244 262 241 236 257 262 268 271
3 287 279 231 218 218 357 306 245 272 287 82 350 41 346 11 29 33 53 60 68 70 61 69 62 67 60 76 103 232 208 182 193 211 201 203 228 244 239 244 247 261 241 257
295 302 226 276 225 243 206 224 294 37 36 67 352 42 22 1 28 63 78 61 62 73 75 75 74 72 71 74 71 68 89 254 257 257 225 218 234 240 246 247 253 249 239 256
281 201 299 7 341 307 341 334 304 165 146 133 52 55 331 30 53 61 63 77 85 83 84 78 73 71 70 69 68 70 74 77 277 265 259 248 243 247 256 258 253 252 254 256
279 245 293 249 269 292 272 295 359 83 11 61 88 45 230 185 207 99 82 79 89 86 81 73 66 62 57 56 56 54 54 57 50 39 284 247 252 256 260 267 265 257 253 254
347 350 2 346 348 352 358 336 300 113 60 23 91 94 17 58 70 79 82 83 84 81 76 71 66 59 55 49 44 44 38 36 31 20 9 329 289 282 283 274 268 272 275 274
36 38 130 167 224 253 327 346 7 83 76 66 55 131 50 64 80 79 88 80 72 60 56 50 46 45 40 31 28 21 10 358 341 330 319 306 303 298 289 282 283 280 276 274
111 88 60 300 228 332 333 357 12 68 155 109 173 119 160 136 107 95 91 75 57 43 31 20 9 360 353 350 346 340 331 321 310 306 306 303 297 293 286 283 277 271 276 277
12 185 61 303 353 101 32 0 20 51 78 84 117 117 162 139 118 92 80 62 47 25 10 358 353 349 343 348 343 341 335 329 323 317 308 300 295 290 288 288 286 284 281 274
33 131 94 270 328 15 337 297 21 77 41 149 183 186 154 130 130 147 152 124 54 350 346 348 346 339 345 343 338 336 324 327 325 323 317 312 308 299 291 286 286 284 281 281
358 118 130 235 24 37 247 231 293 132 135 99 96 106 140 132 38 15 99 37 324 334 338 343 339 343 344 338 332 329 329 328 327 325 322 321 314 305 296 288 282 281 280 280
103 116 57 112 196 232 146 229 179 173 249 195 151 147 108 29 349 345 2 323 326 324 321 324 325 324 322 318 318 316 316 318 319 321 320 319 316 313 308 301 292 283 276 273
351 99 118 138 97 216 210 186 149 77 279 192 171 170 164 118 162 260 296 297 305 305 313 312 307 305 302 305 307 307 310 310 308 308 310 311 311 312 313 311 302 289 278 276
343 356 169 208 244 289 173 168 144 148 245 167 179 177 175 183 197 194 277 296 304 310 302 296 302 298 299 304 307 310 310 319 314 314 307 305 304 307 308 308 307 304 300 277
185 161 215 142 178 279 158 122 168 193 153 166 173 184 198 219 238 256 256 283 292 286 282 284 292 301 310 308 295 290 300 307 301 298 305 312 314 309 305 301 303 302 299 289
247 191 194 183 217 214 184 207 203 178 169 178 184 193 204 220 234 249 265 275 279 284 295 305 314 327 335 328 310 300 303 302 298 300 302 314 320 316 309 304 298 298 296 288
250 182 212 8 250 208 198 196 194 197 200 195 201 202 211 231 246 253 269 286 300 315 322 326 328 329 334 332 326 321 328 316 313 305 308 321 320 318 319 311 292 294 294 282
217 152 201 255 268 226 220 213 212 207 210 201 205 215 233 256 265 273 287 304 318 324 328 330 329 330 333 335 338 340 337 331 326 323 322 324 324 318 320 314 310 297 278 278
198 202 200 230 221 201 203 217 215 217 220 217 213 219 238 266 276 288 303 315 323 326 328 328 329 331 333 334 336 337 334 330 330 329 328 327 327 324 323 321 316 309 295 265
Height
1497 1501 1501 1501 1501 1500 1500 1500 1496 1484 1473 1473 1466 1457 1453 1454 1457 1457 1455 1454 1454 1454 1456 1456 1455 1457 1458 1458 1459 1457 1455 1453 1450 1452 1463 1472 1483 1490 1495 1500 1504 1508 1512 1516
1501 1497 1494 1495 1496 1497 1498 1493 1483 1473 1468 1468 1461 1452 1449 1447 1450 1451 1449 1446 1448 1451 1452 1452 1452 1453 1452 1454 1453 1456 1453 1455 1449 1448 1461 1469 1477 1486 1490 1496 1500 1505 1509 1513
1497 1492 1490 1492 1494 1493 1488 1485 1477 1479 1465 1459 1455 1454 1442 1444 1449 1446 1445 1443 1445 1448 1449 1449 1450 1449 1449 1450 1448 1453 1451 1446 1452 1452 1459 1469 1479 1486 1489 1494 1496 1502 1506 1509
1493 1486 1486 1485 1485 1487 1484 1471 1471 1470 1471 1482 1458 1464 1441 1441 1443 1440 1440 1440 1442 1445 1446 1447 1448 1448 1446 1445 1444 1449 1451 1449 1452 1454 1462 1472 1478 1484 1488 1490 1495 1499 1502 1505
1484 1484 1483 1483 1479 1477 1473 1467 1467 1471 1467 1466 1453 1464 1445 1444 1438 1440 1437 1436 1439 1442 1444 1445 1448 1446 1440 1442 1443 1444 1448 1450 1450 1459 1466 1474 1478 1483 1484 1491 1493 1498 1501 1503
1486 1482 1483 1475 1470 1468 1463 1465 1465 1466 1466 1461 1444 1454 1447 1450 1448 1442 1439 1437 1437 1440 1444 1445 1445 1442 1448 1446 1440 1439 1444 1446 1451 1460 1467 1469 1473 1477 1480 1487 1491 1492 1499 1500
1479 1476 1475 1473 1468 1464 1467 1469 1458 1460 1461 1442 1451 1452 1452 1451 1442 1441 1442 1439 1438 1438 1438 1443 1445 1447 1449 1446 1441 1436 1442 1445 1453 1458 1461 1465 1469 1475 1481 1484 1488 1493 1494 1496
1478 1483 1471 1466 1466 1467 1465 1463 1453 1443 1445 1444 1449 1451 1456 1451 1443 1441 1442 1438 1432 1428 1443 1445 1447 1447 1447 1446 1445 1448 1448 1450 1456 1459 1460 1463 1470 1474 1476 1479 1483 1486 1488 1490
1478 1477 1464 1463 1459 1461 1456 1456 1457 1451 1448 1453 1457 1459 1456 1457 1449 1445 1443 1441 1441 1442 1445 1448 1451 1453 1453 1453 1454 1455 1455 1456 1458 1458 1458 1464 1468 1471 1473 1477 1480 1481 1484 1486
1475 1477 1460 1457 1454 1451 1455 1449 1451 1455 1451 1451 1459 1460 1465 1464 1458 1452 1448 1444 1444 1451 1454 1457 1456 1454 1455 1453 1453 1452 1455 1457 1456 1458 1464 1466 1469 1471 1472 1474 1475 1475 1477 1479
1473 1473 1467 1458 1458 1458 1457 1451 1443 1447 1451 1453 1457 1466 1479 1470 1464 1456 1456 1457 1459 1461 1462 1462 1459 1458 1457 1454 1454 1456 1457 1457 1458 1459 1461 1462 1466 1469 1468 1468 1469 1471 1471 1472
1472 1473 1483 1465 1457 1454 1454 1453 1449 1464 1457 1461 1468 1478 1468 1472 1468 1462 1462 1463 1463 1464 1464 1462 1462 1462 1460 1461 1461 1460 1459 1457 1457 1457 1458 1461 1465 1467 1467 1466 1466 1466 1466 1466
1474 1480 1492 1478 1468 1460 1459 1450 1449 1449 1459 1473 1478 1480 1471 1468 1470 1470 1468 1468 1469 1468 1467 1466 1464 1461 1463 1463 1463 1458 1455 1455 1459 1460 1460 1463 1464 1462 1461 1461 1460 1460 1461 1460
1473 1479 1483 1497 1483 1476 1470 1458 1450 1454 1477 1473 1480 1482 1478 1474 1471 1470 1470 1469 1469 1467 1467 1468 1469 1467 1468 1467 1461 1460 1461 1460 1462 1462 1461 1463 1460 1458 1456 1455 1456 1456 1454 1453
1474 1484 1487 1476 1472 1471 1471 1467 1464 1468 1464 1479 1479 1479 1478 1476 1474 1473 1472 1470 1469 1467 1467 1467 1466 1469 1466 1462 1462 1460 1461 1460 1461 1459 1457 1456 1455 1454 1453 1451 1451 1446 1445 1447
1474 1486 1480 1478 1472 1472 1475 1473 1468 1467 1469 1475 1477 1478 1476 1476 1475 1475 1474 1473 1471 1471 1473 1472 1463 1461 1463 1458 1457 1454 1456 1456 1455 1452 1452 1452 1448 1448 1447 1445 1443 1440 1439 1439
1477 1483 1491 1487 1478 1476 1482 1474 1472 1471 1471 1472 1475 1474 1474 1477 1476 1476 1477 1477 1478 1478 1475 1472 1472 1471 1462 1460 1458 1456 1460 1453 1450 1447 1448 1445 1441 1440 1440 1439 1438 1436 1433 1431
1478 1479 1487 1500 1485 1498 1476 1471 1470 1472 1472 1471 1471 1472 1473 1474 1475 1475 1474 1473 1473 1471 1471 1468 1469 1466 1465 1463 1458 1455 1454 1451 1447 1443 1443 1438 1436 1434 1435 1431 1429 1427 1425 1422
1476 1480 1485 1491 1495 1479 1477 1473 1472 1472 1473 1470 1471 1472 1472 1473 1472 1472 1471 1471 1470 1468 1467 1466 1467 1465 1464 1460 1457 1454 1451 1447 1442 1439 1435 1432 1429 1426 1423 1419 1420 1416 1413 1415
1473 1476 1484 1486 1481 1477 1467 1468 1467 1467 1478 1466 1469 1471 1473 1475 1482 1473 1471 1471 1473 1474 1471 1470 1469 1466 1465 1462 1458 1452 1447 1442 1437 1433 1429 1427 1425 1421 1417 1412 1411 1407 1408 1405
1480 1480 1484 1485 1493 1473 1463 1465 1468 1476 1467 1460 1465 1469 1472 1475 1475 1473 1473 1473 1473 1472 1471 1471 1469 1467 1462 1457 1451 1447 1447 1441 1438 1433 1430 1426 1423 1412 1407 1403 1398 1395 1391 1390
1477 1485 1483 1484 1480 1484 1458 1465 1469 1460 1458 1460 1464 1466 1467 1468 1469 1472 1473 1473 1472 1471 1470 1469 1464 1459 1455 1453 1450 1447 1442 1438 1435 1433 1428 1421 1413 1405 1401 1395 1390 1387 1382 1381
1476 1469 1469 1470 1463 1451 1451 1451 1452 1454 1456 1460 1462 1464 1466 1467 1467 1468 1469 1470 1469 1468 1465 1462 1459 1456 1452 1448 1445 1441 1438 1435 1430 1426 1420 1414 1407 1401 1397 1390 1385 1379 1375 1372
1462 1460 1463 1460 1449 1447 1446 1449 1450 1451 1453 1456 1459 1461 1462 1464 1464 1465 1466 1465 1462 1460 1458 1456 1453 1450 1447 1445 1441 1437 1434 1429 1424 1419 1413 1407 1400 1395 1390 1386 1380 1373 1369 1366
1458 1457 1455 1454 1446 1446 1444 1443 1445 1447 1449 1452 1455 1457 1457 1458 1459 1460 1460 1459 1457 1455 1453 1450 1447 1443 1439 1436 1433 1430 1426 1419 1414 1409 1404 1398 1393 1387 1381 1376 1371 1365 1360 1358
1446 1444 1448 1446 1436 1436 1435 1436 1440 1442 1444 1448 1451 1452 1453 1454 1454 1454 1454 1453 1451 1449 1446 1443 1440 1437 1433 1429 1427 1423 1418 1413 1407 1401 1395 1391 1385 1379 1373 1366 1357 1354 1349 1346